| time (UTC) | temp F | wind direction | speed MPH | gust MPH | rain 1hr in | rain 24hr in | rain mn in | humidity % | barometer mb |
| 20260508001944 | 53 | 232 | 0.0 | 1.0 | 0.00 | 0.00 | 0.00 | 56 | 1012.7 |
| 20260508001441 | 54 | 346 | 2.0 | 2.0 | 0.00 | 0.00 | 0.00 | 53 | 1012.7 |
| 20260508000937 | 54 | 318 | 1.0 | 6.0 | 0.00 | 0.00 | 0.00 | 53 | 1012.5 |
| 20260508000434 | 54 | 300 | 2.0 | 2.0 | 0.00 | 0.00 | 0.00 | 53 | 1012.5 |
| 20260507235930 | 54 | 278 | 1.0 | 4.0 | 0.00 | 0.00 | 0.00 | 53 | 1012.4 |
| 20260507235427 | 55 | 293 | 1.0 | 2.0 | 0.00 | 0.00 | 0.00 | 52 | 1012.3 |
| 20260507234925 | 55 | 351 | 2.0 | 6.0 | 0.00 | 0.00 | 0.00 | 49 | 1012.1 |
| 20260507234421 | 55 | 306 | 1.0 | 7.0 | 0.00 | 0.00 | 0.00 | 47 | 1012.2 |
| 20260507233918 | 55 | 318 | 1.0 | 8.0 | 0.00 | 0.00 | 0.00 | 47 | 1012.1 |
| 20260507233415 | 56 | 319 | 2.0 | 3.0 | 0.00 | 0.00 | 0.00 | 46 | 1012.2 |
| 20260507232913 | 56 | 332 | 3.0 | 4.0 | 0.00 | 0.00 | 0.00 | 46 | 1012.1 |
| 20260507232409 | 56 | 351 | 4.0 | 9.0 | 0.00 | 0.00 | 0.00 | 45 | 1012.1 |
| 20260507231907 | 56 | 288 | 4.0 | 6.0 | 0.00 | 0.00 | 0.00 | 45 | 1012.0 |
| 20260507231403 | 56 | 304 | 2.0 | 4.0 | 0.00 | 0.00 | 0.00 | 44 | 1011.7 |
| 20260507230859 | 56 | 351 | 0.0 | 3.0 | 0.00 | 0.00 | 0.00 | 44 | 1011.8 |
| 20260507230357 | 57 | 307 | 3.0 | 4.0 | 0.00 | 0.00 | 0.00 | 45 | 1012.0 |
| 20260507225857 | 57 | 264 | 4.0 | 6.0 | 0.00 | 0.00 | 0.00 | 44 | 1011.8 |
| 20260507225353 | 57 | 318 | 2.0 | 4.0 | 0.00 | 0.00 | 0.00 | 43 | 1011.7 |
| 20260507224849 | 57 | 282 | 3.0 | 4.0 | 0.00 | 0.00 | 0.00 | 43 | 1011.7 |
| 20260507224346 | 57 | 225 | 1.0 | 6.0 | 0.00 | 0.00 | 0.00 | 45 | 1011.6 |
| 20260507223842 | 57 | 306 | 6.0 | 7.0 | 0.00 | 0.00 | 0.00 | 43 | 1011.5 |
| 20260507223339 | 58 | 336 | 2.0 | 4.0 | 0.00 | 0.00 | 0.00 | 43 | 1011.6 |
| 20260507222836 | 58 | 333 | 4.0 | 6.0 | 0.00 | 0.00 | 0.00 | 43 | 1011.5 |
| 20260507222332 | 58 | 330 | 2.0 | 3.0 | 0.00 | 0.00 | 0.00 | 42 | 1011.3 |
| 20260507221829 | 58 | 6 | 1.0 | 8.0 | 0.00 | 0.00 | 0.00 | 42 | 1011.2 |
| 20260507221326 | 59 | 311 | 1.0 | 2.0 | 0.00 | 0.00 | 0.00 | 43 | 1011.2 |
| 20260507220822 | 58 | 319 | 2.0 | 4.0 | 0.00 | 0.00 | 0.00 | 41 | 1011.2 |
| 20260507220320 | 58 | 325 | 1.0 | 4.0 | 0.00 | 0.00 | 0.00 | 43 | 1011.3 |
| 20260507215815 | 59 | 272 | 2.0 | 4.0 | 0.00 | 0.00 | 0.00 | 42 | 1011.1 |
| 20260507215314 | 59 | 354 | 2.0 | 6.0 | 0.00 | 0.00 | 0.00 | 39 | 1011.0 |
| 20260507214810 | 60 | 282 | 3.0 | 7.0 | 0.00 | 0.00 | 0.00 | 39 | 1010.9 |
| 20260507214307 | 61 | 345 | 3.0 | 4.0 | 0.00 | 0.00 | 0.00 | 39 | 1010.9 |
| 20260507213803 | 61 | 353 | 1.0 | 3.0 | 0.00 | 0.00 | 0.00 | 39 | 1010.7 |
| 20260507213300 | 60 | 317 | 2.0 | 8.0 | 0.00 | 0.00 | 0.00 | 41 | 1010.8 |
| 20260507212756 | 60 | 8 | 4.0 | 6.0 | 0.00 | 0.00 | 0.00 | 41 | 1010.7 |
| 20260507212253 | 60 | 67 | 2.0 | 7.0 | 0.00 | 0.00 | 0.00 | 39 | 1010.9 |
| 20260507211749 | 60 | 348 | 5.0 | 10.0 | 0.00 | 0.00 | 0.00 | 40 | 1010.8 |
| 20260507211246 | 60 | 310 | 3.0 | 10.0 | 0.00 | 0.00 | 0.00 | 38 | 1011.0 |
| 20260507210743 | 60 | 287 | 1.0 | 4.0 | 0.00 | 0.00 | 0.00 | 42 | 1010.7 |
| 20260507210240 | 59 | 288 | 2.0 | 10.0 | 0.00 | 0.00 | 0.00 | 42 | 1010.8 |
| 20260507205736 | 59 | 316 | 4.0 | 8.0 | 0.00 | 0.00 | 0.00 | 41 | 1010.7 |
| 20260507205233 | 59 | 288 | 5.0 | 8.0 | 0.00 | 0.00 | 0.00 | 41 | 1010.7 |
| 20260507204729 | 60 | 293 | 2.0 | 4.0 | 0.00 | 0.00 | 0.00 | 40 | 1010.7 |
| 20260507204227 | 61 | 344 | 3.0 | 4.0 | 0.00 | 0.00 | 0.00 | 38 | 1010.7 |
| 20260507203725 | 61 | 330 | 3.0 | 3.0 | 0.00 | 0.00 | 0.00 | 37 | 1010.7 |
| 20260507203221 | 62 | 334 | 3.0 | 9.0 | 0.00 | 0.00 | 0.00 | 38 | 1010.6 |
| 20260507202718 | 61 | 164 | 2.0 | 6.0 | 0.00 | 0.00 | 0.00 | 41 | 1010.7 |
| 20260507202213 | 61 | 322 | 2.0 | 6.0 | 0.00 | 0.00 | 0.00 | 41 | 1010.6 |
| 20260507201708 | 59 | 293 | 1.0 | 4.0 | 0.00 | 0.00 | 0.00 | 40 | 1010.7 |
| 20260507201206 | 59 | 332 | 1.0 | 6.0 | 0.00 | 0.00 | 0.00 | 40 | 1010.9 |
| 20260507200702 | 59 | 319 | 4.0 | 8.0 | 0.00 | 0.00 | 0.00 | 41 | 1011.0 |
| 20260507200158 | 59 | 338 | 1.0 | 2.0 | 0.00 | 0.00 | 0.00 | 42 | 1010.9 |
| 20260507195655 | 59 | 292 | 2.0 | 4.0 | 0.00 | 0.00 | 0.00 | 42 | 1011.2 |
| 20260507195152 | 59 | 343 | 4.0 | 7.0 | 0.00 | 0.00 | 0.00 | 40 | 1011.0 |
| 20260507194649 | 59 | 308 | 3.0 | 3.0 | 0.00 | 0.00 | 0.00 | 41 | 1011.1 |
| 20260507194144 | 59 | 356 | 1.0 | 4.0 | 0.00 | 0.00 | 0.00 | 41 | 1011.0 |
| 20260507193641 | 60 | 330 | 2.0 | 7.0 | 0.00 | 0.00 | 0.00 | 40 | 1011.1 |
| 20260507193138 | 61 | 296 | 3.0 | 7.0 | 0.00 | 0.00 | 0.00 | 41 | 1011.2 |
| 20260507192634 | 61 | 317 | 3.0 | 4.0 | 0.00 | 0.00 | 0.00 | 40 | 1011.0 |
| 20260507192131 | 62 | 342 | 6.0 | 9.0 | 0.00 | 0.00 | 0.00 | 38 | 1011.3 |
| 20260507191627 | 60 | 68 | 0.0 | 6.0 | 0.00 | 0.00 | 0.00 | 42 | 1011.1 |
| 20260507191124 | 62 | 350 | 1.0 | 8.0 | 0.00 | 0.00 | 0.00 | 38 | 1011.1 |
| 20260507190621 | 60 | 22 | 4.0 | 7.0 | 0.00 | 0.00 | 0.00 | 40 | 1011.0 |
| 20260507190120 | 61 | 330 | 2.0 | 6.0 | 0.00 | 0.00 | 0.00 | 40 | 1011.1 |
| 20260507185618 | 62 | 320 | 2.0 | 6.0 | 0.00 | 0.00 | 0.00 | 41 | 1011.0 |
| 20260507185114 | 61 | 325 | 2.0 | 4.0 | 0.00 | 0.00 | 0.00 | 41 | 1011.1 |
| 20260507184612 | 60 | 312 | 1.0 | 2.0 | 0.00 | 0.00 | 0.00 | 46 | 1011.2 |
| 20260507184110 | 61 | 6 | 2.0 | 6.0 | 0.00 | 0.00 | 0.00 | 39 | 1011.3 |
| 20260507183606 | 60 | 346 | 3.0 | 4.0 | 0.00 | 0.00 | 0.00 | 42 | 1011.6 |
| 20260507183103 | 59 | 78 | 4.0 | 6.0 | 0.00 | 0.00 | 0.00 | 41 | 1011.4 |
| 20260507182559 | 58 | 1 | 2.0 | 4.0 | 0.00 | 0.00 | 0.00 | 45 | 1011.3 |
| 20260507182055 | 59 | 314 | 3.0 | 4.0 | 0.00 | 0.00 | 0.00 | 43 | 1011.4 |
| 20260507181553 | 61 | 323 | 1.0 | 3.0 | 0.00 | 0.00 | 0.00 | 43 | 1011.5 |
| 20260507181049 | 58 | 289 | 1.0 | 2.0 | 0.00 | 0.00 | 0.00 | 48 | 1011.6 |
| 20260507180545 | 58 | 320 | 3.0 | 4.0 | 0.00 | 0.00 | 0.00 | 44 | 1011.6 |
| 20260507180042 | 61 | 314 | 3.0 | 6.0 | 0.00 | 0.00 | 0.00 | 43 | 1011.5 |
| 20260507175538 | 59 | 335 | 2.0 | 7.0 | 0.00 | 0.00 | 0.00 | 45 | 1011.4 |
| 20260507175037 | 59 | 1 | 2.0 | 7.0 | 0.00 | 0.00 | 0.00 | 44 | 1011.7 |
| 20260507174533 | 58 | 326 | 2.0 | 4.0 | 0.00 | 0.00 | 0.00 | 45 | 1011.6 |
| 20260507174031 | 59 | 273 | 2.0 | 3.0 | 0.00 | 0.00 | 0.00 | 47 | 1011.8 |
| 20260507173527 | 59 | 304 | 1.0 | 4.0 | 0.00 | 0.00 | 0.00 | 47 | 1011.8 |
| 20260507173025 | 59 | 342 | 4.0 | 6.0 | 0.00 | 0.00 | 0.00 | 47 | 1011.8 |
| 20260507172520 | 60 | 349 | 2.0 | 3.0 | 0.00 | 0.00 | 0.00 | 43 | 1011.7 |
| 20260507172017 | 59 | 76 | 1.0 | 7.0 | 0.00 | 0.00 | 0.00 | 43 | 1012.0 |
| 20260507171513 | 60 | 355 | 2.0 | 4.0 | 0.00 | 0.00 | 0.00 | 46 | 1012.1 |
| 20260507171011 | 59 | 108 | 1.0 | 4.0 | 0.00 | 0.00 | 0.00 | 46 | 1012.1 |
| 20260507170507 | 61 | 312 | 0.0 | 3.0 | 0.00 | 0.00 | 0.00 | 42 | 1011.8 |
| 20260507170004 | 59 | 106 | 5.0 | 10.0 | 0.00 | 0.00 | 0.00 | 44 | 1012.1 |
| 20260507165500 | 58 | 76 | 1.0 | 3.0 | 0.00 | 0.00 | 0.00 | 51 | 1012.1 |
| 20260507164956 | 59 | 81 | 3.0 | 6.0 | 0.00 | 0.00 | 0.00 | 45 | 1012.1 |
| 20260507164453 | 59 | 110 | 2.0 | 4.0 | 0.00 | 0.00 | 0.00 | 49 | 1012.3 |
| 20260507163949 | 57 | 345 | 3.0 | 3.0 | 0.00 | 0.00 | 0.00 | 49 | 1012.4 |
| 20260507163447 | 57 | 58 | 1.0 | 3.0 | 0.00 | 0.00 | 0.00 | 49 | 1012.4 |
| 20260507162944 | 57 | 86 | 0.0 | 0.0 | 0.00 | 0.00 | 0.00 | 50 | 1012.4 |
| 20260507162439 | 56 | 334 | 1.0 | 3.0 | 0.00 | 0.00 | 0.00 | 52 | 1012.3 |
| 20260507161937 | 57 | 326 | 1.0 | 3.0 | 0.00 | 0.00 | 0.00 | 49 | 1012.4 |
| 20260507161432 | 57 | 313 | 4.0 | 4.0 | 0.00 | 0.00 | 0.00 | 49 | 1012.5 |
| 20260507160929 | 58 | 356 | 4.0 | 4.0 | 0.00 | 0.00 | 0.00 | 49 | 1012.5 |
| 20260507160425 | 58 | 2 | 4.0 | 7.0 | 0.00 | 0.00 | 0.00 | 50 | 1012.3 |
| 20260507155921 | 58 | 115 | 6.0 | 9.0 | 0.00 | 0.00 | 0.00 | 46 | 1012.6 |
| 20260507155417 | 58 | 176 | 1.0 | 4.0 | 0.00 | 0.00 | 0.00 | 52 | 1012.7 |
| 20260507154915 | 59 | 117 | 6.0 | 9.0 | 0.00 | 0.00 | 0.00 | 48 | 1012.7 |
| 20260507154411 | 59 | 333 | 2.0 | 6.0 | 0.00 | 0.00 | 0.00 | 50 | 1012.7 |
| 20260507153909 | 58 | 276 | 4.0 | 4.0 | 0.00 | 0.00 | 0.00 | 50 | 1012.7 |
| 20260507153405 | 58 | 96 | 0.0 | 8.0 | 0.00 | 0.00 | 0.00 | 50 | 1012.9 |
| 20260507152901 | 58 | 94 | 3.0 | 4.0 | 0.00 | 0.00 | 0.00 | 48 | 1012.9 |
| 20260507152358 | 57 | 118 | 1.0 | 4.0 | 0.00 | 0.00 | 0.00 | 50 | 1013.0 |
| 20260507151854 | 56 | 155 | 1.0 | 6.0 | 0.00 | 0.00 | 0.00 | 50 | 1012.9 |
| 20260507151351 | 57 | 108 | 2.0 | 3.0 | 0.00 | 0.00 | 0.00 | 50 | 1012.9 |
| 20260507150847 | 55 | 331 | 0.0 | 1.0 | 0.00 | 0.00 | 0.00 | 54 | 1013.1 |
| 20260507150344 | 56 | 314 | 1.0 | 7.0 | 0.00 | 0.00 | 0.00 | 50 | 1013.3 |
| 20260507145840 | 57 | 0 | 2.0 | 3.0 | 0.00 | 0.00 | 0.00 | 50 | 1013.1 |
| 20260507145337 | 57 | 105 | 0.0 | 2.0 | 0.00 | 0.00 | 0.00 | 50 | 1013.2 |
| 20260507144834 | 57 | 318 | 2.0 | 4.0 | 0.00 | 0.00 | 0.00 | 50 | 1013.2 |
| 20260507144332 | 55 | 329 | 2.0 | 6.0 | 0.00 | 0.00 | 0.00 | 54 | 1013.4 |
| 20260507143828 | 55 | 336 | 4.0 | 7.0 | 0.00 | 0.00 | 0.00 | 52 | 1013.4 |
| 20260507143325 | 54 | 345 | 2.0 | 4.0 | 0.00 | 0.00 | 0.00 | 56 | 1013.5 |
| 20260507142821 | 54 | 342 | 1.0 | 4.0 | 0.00 | 0.00 | 0.00 | 57 | 1013.5 |
| 20260507142317 | 55 | 311 | 4.0 | 7.0 | 0.00 | 0.00 | 0.00 | 57 | 1013.6 |
| 20260507141814 | 55 | 76 | 1.0 | 3.0 | 0.00 | 0.00 | 0.00 | 54 | 1013.7 |
| 20260507141311 | 55 | 141 | 5.0 | 9.0 | 0.00 | 0.00 | 0.00 | 57 | 1013.7 |
| 20260507140807 | 55 | 328 | 2.0 | 4.0 | 0.00 | 0.00 | 0.00 | 58 | 1013.8 |
| 20260507140304 | 55 | 101 | 2.0 | 3.0 | 0.00 | 0.00 | 0.00 | 62 | 1013.8 |
| 20260507135802 | 55 | 97 | 3.0 | 4.0 | 0.00 | 0.00 | 0.00 | 62 | 1014.0 |
| 20260507135259 | 56 | 283 | 1.0 | 2.0 | 0.00 | 0.00 | 0.00 | 65 | 1014.0 |
| 20260507134755 | 53 | 98 | 4.0 | 6.0 | 0.00 | 0.00 | 0.00 | 64 | 1014.0 |
| 20260507134252 | 54 | 281 | 2.0 | 6.0 | 0.00 | 0.00 | 0.00 | 63 | 1014.0 |
| 20260507133748 | 54 | 326 | 0.0 | 3.0 | 0.00 | 0.00 | 0.00 | 66 | 1013.9 |
| 20260507133244 | 53 | 88 | 0.0 | 2.0 | 0.00 | 0.00 | 0.00 | 69 | 1014.1 |
| 20260507132742 | 53 | 80 | 1.0 | 4.0 | 0.00 | 0.00 | 0.00 | 67 | 1014.3 |
| 20260507132239 | 52 | 339 | 3.0 | 6.0 | 0.00 | 0.00 | 0.00 | 70 | 1013.9 |
| 20260507131735 | 52 | 79 | 1.0 | 4.0 | 0.00 | 0.00 | 0.00 | 71 | 1014.2 |
| 20260507131233 | 51 | 299 | 4.0 | 7.0 | 0.00 | 0.00 | 0.00 | 69 | 1014.2 |
| 20260507130729 | 51 | 343 | 2.0 | 3.0 | 0.00 | 0.00 | 0.00 | 71 | 1014.2 |
| 20260507130227 | 51 | 29 | 2.0 | 4.0 | 0.00 | 0.00 | 0.00 | 74 | 1014.2 |
| 20260507125725 | 50 | 87 | 0.0 | 1.0 | 0.00 | 0.00 | 0.00 | 82 | 1014.1 |
| 20260507125223 | 48 | 89 | 0.0 | 0.0 | 0.00 | 0.00 | 0.00 | 86 | 1014.2 |
| 20260507124719 | 47 | 321 | 0.0 | 0.0 | 0.00 | 0.00 | 0.00 | 88 | 1014.2 |
| 20260507124216 | 48 | 64 | 0.0 | 0.0 | 0.00 | 0.00 | 0.00 | 88 | 1014.2 |
| 20260507123715 | 47 | 93 | 0.0 | 0.0 | 0.00 | 0.00 | 0.00 | 88 | 1014.3 |
| 20260507123212 | 46 | 77 | 0.0 | 0.0 | 0.00 | 0.00 | 0.00 | 92 | 1014.4 |
| 20260507122707 | 44 | 95 | 0.0 | 0.0 | 0.00 | 0.00 | 0.00 | 92 | 1014.2 |
| 20260507122203 | 43 | 91 | 0.0 | 0.0 | 0.00 | 0.00 | 0.00 | 98 | 1014.1 |
| 20260507121659 | 41 | 82 | 0.0 | 0.0 | 0.00 | 0.00 | 0.00 | 99 | 1014.4 |
| 20260507121155 | 41 | 77 | 0.0 | 0.0 | 0.00 | 0.00 | 0.00 | 99 | 1014.2 |
| 20260507120651 | 39 | 83 | 0.0 | 0.0 | 0.00 | 0.00 | 0.00 | 99 | 1014.3 |
| 20260507120148 | 39 | 89 | 0.0 | 0.0 | 0.00 | 0.00 | 0.00 | 99 | 1014.1 |
| 20260507115644 | 38 | 83 | 0.0 | 0.0 | 0.00 | 0.00 | 0.00 | 99 | 1014.4 |
| 20260507115140 | 38 | 80 | 0.0 | 0.0 | 0.00 | 0.00 | 0.00 | 99 | 1014.5 |
| 20260507114636 | 37 | 91 | 0.0 | 0.0 | 0.00 | 0.00 | 0.00 | 99 | 1014.6 |
| 20260507114133 | 37 | 78 | 0.0 | 0.0 | 0.00 | 0.00 | 0.00 | 99 | 1014.6 |
| 20260507113631 | 36 | 60 | 0.0 | 1.0 | 0.00 | 0.00 | 0.00 | 99 | 1014.4 |
| 20260507113128 | 37 | 69 | 0.0 | 0.0 | 0.00 | 0.00 | 0.00 | 99 | 1014.6 |
| 20260507112625 | 37 | 98 | 0.0 | 1.0 | 0.00 | 0.00 | 0.00 | 99 | 1014.4 |
| 20260507112122 | 37 | 109 | 0.0 | 2.0 | 0.00 | 0.00 | 0.00 | 99 | 1014.4 |
| 20260507111619 | 37 | 91 | 0.0 | 1.0 | 0.00 | 0.00 | 0.00 | 99 | 1014.3 |
| 20260507111116 | 37 | 59 | 0.0 | 0.0 | 0.00 | 0.00 | 0.00 | 99 | 1014.2 |
| 20260507110612 | 37 | 93 | 0.0 | 0.0 | 0.00 | 0.00 | 0.00 | 99 | 1014.2 |
| 20260507110109 | 37 | 103 | 0.0 | 0.0 | 0.00 | 0.00 | 0.00 | 99 | 1014.2 |
| 20260507105606 | 36 | 98 | 0.0 | 0.0 | 0.00 | 0.00 | 0.00 | 99 | 1014.2 |
| 20260507105101 | 36 | 98 | 0.0 | 0.0 | 0.00 | 0.00 | 0.00 | 99 | 1014.2 |
| 20260507104600 | 36 | 110 | 0.0 | 0.0 | 0.00 | 0.00 | 0.00 | 99 | 1014.2 |
| 20260507104055 | 36 | 98 | 0.0 | 0.0 | 0.00 | 0.00 | 0.00 | 99 | 1014.0 |
| 20260507103551 | 36 | 71 | 0.0 | 0.0 | 0.00 | 0.00 | 0.00 | 99 | 1014.0 |
| 20260507103049 | 36 | 61 | 0.0 | 0.0 | 0.00 | 0.00 | 0.00 | 99 | 1014.0 |
| 20260507102545 | 36 | 89 | 0.0 | 0.0 | 0.00 | 0.00 | 0.00 | 99 | 1013.8 |
| 20260507102041 | 36 | 101 | 0.0 | 0.0 | 0.00 | 0.00 | 0.00 | 99 | 1013.9 |
| 20260507101536 | 36 | 199 | 0.0 | 0.0 | 0.00 | 0.00 | 0.00 | 99 | 1013.9 |
| 20260507101033 | 36 | 103 | 0.0 | 0.0 | 0.00 | 0.00 | 0.00 | 99 | 1013.8 |
| 20260507100531 | 36 | 107 | 0.0 | 0.0 | 0.00 | 0.00 | 0.00 | 99 | 1013.9 |
| 20260507100029 | 36 | 153 | 0.0 | 0.0 | 0.00 | 0.00 | 0.00 | 99 | 1013.9 |
| 20260507095526 | 36 | 120 | 0.0 | 0.0 | 0.00 | 0.00 | 0.00 | 99 | 1013.9 |
| 20260507095023 | 36 | 92 | 0.0 | 0.0 | 0.00 | 0.00 | 0.00 | 99 | 1013.9 |
| 20260507094519 | 36 | 101 | 0.0 | 0.0 | 0.00 | 0.00 | 0.00 | 99 | 1014.0 |
| 20260507094016 | 36 | 101 | 0.0 | 0.0 | 0.00 | 0.00 | 0.00 | 99 | 1013.9 |
| 20260507093513 | 36 | 101 | 0.0 | 0.0 | 0.00 | 0.00 | 0.00 | 99 | 1013.9 |
| 20260507093012 | 35 | 101 | 0.0 | 0.0 | 0.00 | 0.00 | 0.00 | 99 | 1013.7 |
| 20260507092508 | 35 | 101 | 0.0 | 0.0 | 0.00 | 0.00 | 0.00 | 99 | 1013.8 |
| 20260507092005 | 35 | 101 | 0.0 | 0.0 | 0.00 | 0.00 | 0.00 | 99 | 1014.1 |
| 20260507091502 | 35 | 101 | 0.0 | 0.0 | 0.00 | 0.00 | 0.00 | 99 | 1014.0 |
| 20260507090957 | 36 | 101 | 0.0 | 0.0 | 0.00 | 0.00 | 0.00 | 99 | 1014.1 |
| 20260507090453 | 36 | 101 | 0.0 | 0.0 | 0.00 | 0.00 | 0.00 | 99 | 1014.0 |
| 20260507085950 | 36 | 101 | 0.0 | 0.0 | 0.00 | 0.00 | 0.00 | 99 | 1014.0 |
| 20260507085447 | 36 | 101 | 0.0 | 0.0 | 0.00 | 0.00 | 0.00 | 99 | 1013.9 |
| 20260507084944 | 36 | 101 | 0.0 | 0.0 | 0.00 | 0.00 | 0.00 | 99 | 1014.0 |
| 20260507084441 | 36 | 101 | 0.0 | 0.0 | 0.00 | 0.00 | 0.00 | 99 | 1014.0 |
| 20260507083938 | 36 | 101 | 0.0 | 0.0 | 0.00 | 0.00 | 0.00 | 99 | 1014.1 |
| 20260507083434 | 36 | 101 | 0.0 | 0.0 | 0.00 | 0.00 | 0.00 | 99 | 1013.8 |
| 20260507082931 | 37 | 101 | 0.0 | 0.0 | 0.00 | 0.00 | 0.00 | 99 | 1013.9 |
| 20260507082427 | 36 | 101 | 0.0 | 0.0 | 0.00 | 0.00 | 0.00 | 99 | 1014.0 |
| 20260507081924 | 37 | 101 | 0.0 | 0.0 | 0.00 | 0.00 | 0.00 | 99 | 1014.1 |
| 20260507081420 | 37 | 101 | 0.0 | 0.0 | 0.00 | 0.00 | 0.00 | 99 | 1013.9 |
| 20260507080917 | 37 | 101 | 0.0 | 0.0 | 0.00 | 0.00 | 0.00 | 99 | 1014.0 |
| 20260507080413 | 37 | 101 | 0.0 | 0.0 | 0.00 | 0.00 | 0.00 | 99 | 1014.1 |
| 20260507075908 | 37 | 101 | 0.0 | 0.0 | 0.00 | 0.00 | 0.00 | 99 | 1014.1 |
| 20260507075405 | 37 | 101 | 0.0 | 0.0 | 0.00 | 0.00 | 0.00 | 99 | 1014.1 |
| 20260507074901 | 38 | 102 | 0.0 | 0.0 | 0.00 | 0.00 | 0.00 | 99 | 1014.0 |
| 20260507074358 | 38 | 102 | 0.0 | 0.0 | 0.00 | 0.00 | 0.00 | 98 | 1014.1 |
| 20260507073856 | 38 | 103 | 0.0 | 0.0 | 0.00 | 0.00 | 0.00 | 98 | 1014.3 |
| 20260507073352 | 38 | 94 | 0.0 | 0.0 | 0.00 | 0.00 | 0.00 | 98 | 1014.1 |
| 20260507072849 | 38 | 105 | 0.0 | 0.0 | 0.00 | 0.00 | 0.00 | 97 | 1014.1 |
| 20260507072347 | 39 | 105 | 0.0 | 0.0 | 0.00 | 0.00 | 0.00 | 97 | 1014.0 |
| 20260507071844 | 39 | 106 | 0.0 | 0.0 | 0.00 | 0.00 | 0.00 | 97 | 1014.1 |
| 20260507071341 | 39 | 108 | 0.0 | 0.0 | 0.00 | 0.00 | 0.00 | 96 | 1014.1 |
| 20260507070837 | 39 | 108 | 0.0 | 0.0 | 0.00 | 0.00 | 0.00 | 96 | 1014.2 |
| 20260507070335 | 40 | 108 | 0.0 | 0.0 | 0.00 | 0.00 | 0.00 | 95 | 1014.3 |
| 20260507065831 | 40 | 113 | 0.0 | 0.0 | 0.00 | 0.00 | 0.00 | 95 | 1014.2 |
| 20260507065328 | 40 | 133 | 0.0 | 0.0 | 0.00 | 0.00 | 0.00 | 94 | 1014.3 |
| 20260507064825 | 40 | 108 | 0.0 | 0.0 | 0.00 | 0.00 | 0.00 | 94 | 1014.2 |
| 20260507064324 | 41 | 129 | 0.0 | 0.0 | 0.00 | 0.00 | 0.00 | 94 | 1014.1 |
| 20260507063821 | 41 | 104 | 0.0 | 0.0 | 0.00 | 0.00 | 0.00 | 94 | 1014.0 |
| 20260507063318 | 41 | 123 | 0.0 | 0.0 | 0.00 | 0.00 | 0.00 | 94 | 1014.0 |
| 20260507062815 | 42 | 97 | 0.0 | 0.0 | 0.00 | 0.00 | 0.00 | 94 | 1014.3 |
| 20260507062312 | 42 | 55 | 0.0 | 0.0 | 0.00 | 0.00 | 0.00 | 93 | 1014.4 |
| 20260507061810 | 42 | 50 | 0.0 | 0.0 | 0.00 | 0.00 | 0.00 | 93 | 1014.3 |
| 20260507061307 | 42 | 89 | 0.0 | 0.0 | 0.00 | 0.00 | 0.00 | 92 | 1014.4 |
| 20260507060806 | 42 | 90 | 0.0 | 0.0 | 0.00 | 0.00 | 0.00 | 91 | 1014.4 |
| 20260507060302 | 42 | 100 | 0.0 | 0.0 | 0.00 | 0.00 | 0.00 | 89 | 1014.6 |
| 20260507055758 | 43 | 103 | 0.0 | 0.0 | 0.00 | 0.00 | 0.00 | 87 | 1014.4 |
| 20260507055253 | 43 | 181 | 0.0 | 0.0 | 0.00 | 0.00 | 0.00 | 87 | 1014.2 |
| 20260507054750 | 44 | 93 | 0.0 | 0.0 | 0.00 | 0.00 | 0.00 | 87 | 1014.4 |
| 20260507054247 | 44 | 93 | 0.0 | 0.0 | 0.00 | 0.00 | 0.00 | 86 | 1014.5 |
| 20260507053744 | 44 | 108 | 0.0 | 0.0 | 0.00 | 0.00 | 0.00 | 85 | 1014.5 |
| 20260507053242 | 44 | 86 | 0.0 | 0.0 | 0.00 | 0.00 | 0.00 | 85 | 1014.5 |
| 20260507052741 | 45 | 105 | 0.0 | 0.0 | 0.00 | 0.00 | 0.00 | 85 | 1014.6 |
| 20260507052236 | 45 | 105 | 0.0 | 0.0 | 0.00 | 0.00 | 0.00 | 84 | 1014.8 |
| 20260507051735 | 45 | 105 | 0.0 | 0.0 | 0.00 | 0.00 | 0.00 | 85 | 1014.7 |
| 20260507051231 | 45 | 105 | 0.0 | 0.0 | 0.00 | 0.00 | 0.00 | 84 | 1014.9 |
| 20260507050728 | 45 | 97 | 0.0 | 0.0 | 0.00 | 0.00 | 0.00 | 84 | 1014.7 |
| 20260507050225 | 46 | 101 | 0.0 | 0.0 | 0.00 | 0.00 | 0.00 | 84 | 1015.0 |
| 20260507045722 | 46 | 92 | 0.0 | 0.0 | 0.00 | 0.00 | 0.00 | 84 | 1014.9 |
| 20260507045218 | 46 | 98 | 0.0 | 0.0 | 0.00 | 0.00 | 0.00 | 83 | 1014.9 |
| 20260507044715 | 46 | 126 | 0.0 | 0.0 | 0.00 | 0.00 | 0.00 | 83 | 1015.0 |
| 20260507044212 | 45 | 300 | 0.0 | 0.0 | 0.00 | 0.00 | 0.00 | 85 | 1015.0 |
| 20260507043708 | 46 | 96 | 0.0 | 0.0 | 0.00 | 0.00 | 0.00 | 88 | 1015.0 |
| 20260507043205 | 46 | 96 | 0.0 | 0.0 | 0.00 | 0.00 | 0.00 | 89 | 1015.2 |
| 20260507042701 | 46 | 94 | 0.0 | 0.0 | 0.00 | 0.00 | 0.00 | 89 | 1014.9 |
| 20260507042156 | 46 | 44 | 0.0 | 0.0 | 0.00 | 0.00 | 0.00 | 89 | 1014.9 |
| 20260507041654 | 46 | 38 | 0.0 | 0.0 | 0.00 | 0.00 | 0.00 | 88 | 1014.9 |
| 20260507041150 | 46 | 31 | 0.0 | 0.0 | 0.00 | 0.00 | 0.00 | 89 | 1014.9 |
| 20260507040647 | 46 | 358 | 0.0 | 0.0 | 0.00 | 0.00 | 0.00 | 88 | 1015.1 |
| 20260507040143 | 46 | 59 | 0.0 | 0.0 | 0.00 | 0.48 | 0.48 | 88 | 1015.0 |
| 20260507035639 | 46 | 66 | 0.0 | 0.0 | 0.00 | 0.48 | 0.48 | 87 | 1015.0 |
| 20260507035135 | 46 | 69 | 0.0 | 0.0 | 0.00 | 0.48 | 0.48 | 86 | 1014.9 |
| 20260507034633 | 46 | 89 | 0.0 | 0.0 | 0.00 | 0.48 | 0.48 | 83 | 1014.8 |
| 20260507034130 | 46 | 89 | 0.0 | 0.0 | 0.00 | 0.48 | 0.48 | 86 | 1014.8 |
| 20260507033629 | 46 | 89 | 0.0 | 0.0 | 0.00 | 0.48 | 0.48 | 86 | 1014.6 |
| 20260507033125 | 46 | 89 | 0.0 | 0.0 | 0.00 | 0.48 | 0.48 | 88 | 1014.6 |
| 20260507032623 | 46 | 89 | 0.0 | 0.0 | 0.00 | 0.48 | 0.48 | 85 | 1014.6 |
| 20260507032118 | 46 | 89 | 0.0 | 0.0 | 0.00 | 0.48 | 0.48 | 83 | 1014.6 |
| 20260507031615 | 46 | 40 | 0.0 | 0.0 | 0.00 | 0.48 | 0.48 | 83 | 1014.8 |
| 20260507031112 | 46 | 10 | 0.0 | 0.0 | 0.00 | 0.48 | 0.48 | 82 | 1014.6 |
| 20260507030609 | 47 | 0 | 0.0 | 0.0 | 0.00 | 0.48 | 0.48 | 81 | 1014.7 |
| 20260507030107 | 46 | 46 | 0.0 | 0.0 | 0.00 | 0.48 | 0.48 | 79 | 1014.6 |
| 20260507025603 | 46 | 45 | 0.0 | 0.0 | 0.00 | 0.48 | 0.48 | 81 | 1014.5 |
| 20260507025100 | 46 | 24 | 0.0 | 0.0 | 0.00 | 0.48 | 0.48 | 84 | 1014.5 |
| 20260507024559 | 46 | 327 | 0.0 | 0.0 | 0.00 | 0.48 | 0.48 | 83 | 1014.4 |
| 20260507024055 | 46 | 69 | 0.0 | 0.0 | 0.00 | 0.48 | 0.48 | 84 | 1014.3 |
| 20260507023550 | 46 | 69 | 0.0 | 0.0 | 0.00 | 0.48 | 0.48 | 84 | 1014.3 |
| 20260507023049 | 46 | 32 | 0.0 | 0.0 | 0.00 | 0.48 | 0.48 | 83 | 1014.3 |
| 20260507022545 | 46 | 32 | 0.0 | 0.0 | 0.00 | 0.48 | 0.48 | 83 | 1014.3 |
| 20260507022040 | 46 | 28 | 0.0 | 0.0 | 0.00 | 0.48 | 0.48 | 81 | 1014.3 |
| 20260507021537 | 46 | 348 | 0.0 | 0.0 | 0.00 | 0.48 | 0.48 | 81 | 1014.1 |
| 20260507021033 | 47 | 8 | 0.0 | 0.0 | 0.00 | 0.48 | 0.48 | 80 | 1014.0 |
| 20260507020531 | 47 | 19 | 0.0 | 0.0 | 0.00 | 0.48 | 0.48 | 78 | 1014.1 |
| 20260507020027 | 48 | 9 | 0.0 | 0.0 | 0.00 | 0.48 | 0.48 | 75 | 1014.1 |
| 20260507015526 | 48 | 62 | 0.0 | 0.0 | 0.00 | 0.48 | 0.48 | 75 | 1013.9 |
| 20260507015023 | 49 | 62 | 0.0 | 0.0 | 0.00 | 0.48 | 0.48 | 71 | 1013.9 |
| 20260507014519 | 49 | 359 | 0.0 | 0.0 | 0.00 | 0.48 | 0.48 | 69 | 1013.8 |
| 20260507014015 | 49 | 346 | 0.0 | 0.0 | 0.00 | 0.48 | 0.48 | 71 | 1013.8 |
| 20260507013512 | 49 | 357 | 0.0 | 0.0 | 0.00 | 0.48 | 0.48 | 68 | 1013.7 |
| 20260507013010 | 49 | 39 | 0.0 | 0.0 | 0.00 | 0.48 | 0.48 | 68 | 1013.8 |
| 20260507012506 | 49 | 92 | 0.0 | 0.0 | 0.00 | 0.48 | 0.48 | 70 | 1013.5 |
| 20260507012003 | 49 | 96 | 0.0 | 0.0 | 0.00 | 0.48 | 0.48 | 72 | 1013.5 |
| 20260507011500 | 49 | 96 | 0.0 | 0.0 | 0.00 | 0.48 | 0.48 | 72 | 1013.5 |
| 20260507010950 | 50 | 96 | 0.0 | 0.0 | 0.00 | 0.48 | 0.48 | 74 | 1013.6 |
| 20260507010445 | 50 | 96 | 0.0 | 0.0 | 0.00 | 0.48 | 0.48 | 70 | 1013.6 |
| 20260507005942 | 50 | 92 | 0.0 | 0.0 | 0.00 | 0.48 | 0.48 | 69 | 1013.7 |
| 20260507005439 | 50 | 59 | 0.0 | 0.0 | 0.00 | 0.48 | 0.48 | 66 | 1013.7 |
| 20260507004936 | 51 | 34 | 0.0 | 0.0 | 0.00 | 0.48 | 0.48 | 64 | 1013.9 |
| 20260507004432 | 51 | 332 | 0.0 | 0.0 | 0.00 | 0.48 | 0.48 | 62 | 1013.7 |
| 20260507003930 | 51 | 83 | 0.0 | 0.0 | 0.00 | 0.48 | 0.48 | 62 | 1013.8 |
| 20260507003425 | 51 | 345 | 2.0 | 2.0 | 0.00 | 0.48 | 0.48 | 62 | 1013.8 |
| 20260507002920 | 51 | 331 | 2.0 | 3.0 | 0.00 | 0.48 | 0.48 | 62 | 1013.7 |
| 20260507002416 | 51 | 341 | 1.0 | 2.0 | 0.00 | 0.48 | 0.48 | 64 | 1013.8 |